Regional Weather Roundup
Issued by NWS

Home | Current Version | Previous Version | Text Only | Print | Product List | Glossary Off
Versions: 1 2 3 4 5 6 7 8 9 10 11 12 13 14 15 16 17 18 19 20 21 22 23 24 25 26 27 28 29 30 31 32 33 34 35 36 37 38 39 40 41 42 43 44 45 46 47 48 49 50

000
ASUS43 KLSX 262207
RWRMO

WEATHER SUMMARY FOR MISSOURI
NATIONAL WEATHER SERVICE SPRINGFIELD MO
400 PM CST THU FEB 26 2015

NOTE: "FAIR" INDICATES FEW OR NO CLOUDS BELOW 12,000 FEET WITH NO
       SIGNIFICANT WEATHER AND/OR OBSTRUCTIONS TO VISIBILITY.
       CURRENT SKY AND/OR WEATHER CONDITIONS ARE NOT AVAILABLE FOR
       CHILLICOTHE AND FARMINGTON.

MOZ001>031-035>038-043-044-053-054-262300-
...NORTHERN AND WESTERN MISSOURI...

CITY           SKY/WX    TMP DP  RH WIND       PRES   REMARKS
KANSAS CTY INT MOSUNNY   19   1  45 N17G23    30.44R WCI   4
KANSAS C DTWN  MOSUNNY   21   0  39 NW9G20    30.46R WCI  11
LEE`S SUMMIT   SUNNY     21   0  39 N17       30.43R WCI   7
ST JOSEPH      SUNNY     18  -1  43 N17G25    30.49R WCI   3
CHILLICOTHE      N/A     17   1  49 N9G22     30.46R WCI   6
KIRKSVILLE     SUNNY     15   0  51 N13       30.41R WCI   1

$$
MOZ066>068-077>081-088>096-101>105-262300-
...SOUTHWEST MISSOURI...

CITY           SKY/WX    TMP DP  RH WIND       PRES   REMARKS
SPRINGFIELD    SUNNY     26   6  42 N14G23    30.31R WCI  14
JOPLIN         SUNNY     27   2  34 N15G22    30.38R WCI  15

$$
MOZ032>034-039>042-045>050-055>058-069>072-262300-
...CENTRAL MISSOURI...

CITY           SKY/WX    TMP DP  RH WIND       PRES   REMARKS
COLUMBIA       CLOUDY    23   6  48 N14G21    30.35R WCI  11
JEFFERSON CITY CLOUDY    24   5  44 N13       30.38R WCI  12
ROLLA          CLOUDY    21   8  57 N13       30.29R WCI   9
SEDALIA        SUNNY     22   3  44 N14G23    30.42R WCI   9
WHITEMAN AFB   SUNNY     21   2  43 N16       30.41R WCI   7
WARRENSBURG    PTSUNNY   23   3  42 N14G21    30.43R WCI  11
OSAGE BEACH    MOSUNNY   25   3  39 N9G18     30.35R WCI  15

$$
MOZ051-052-059>065-262300-
...EAST CENTRAL MISSOURI...

CITY           SKY/WX    TMP DP  RH WIND       PRES   REMARKS
ST LOUIS INTL  PTSUNNY   22  11  62 NW17      30.33R WCI   8
SPIRIT OF STL  PTSUNNY   22  10  60 NW12      30.34R WCI  10
ST CHARLES     CLOUDY    21  10  62 NW13      30.35R WCI   9

$$
MOZ072>076-082>087-097>100-106>115-262300-
...SOUTH CENTRAL AND SOUTHEAST MISSOURI...

CITY           SKY/WX    TMP DP  RH WIND       PRES   REMARKS
CAPE GIRARDEAU CLOUDY    26  18  71 NW18      30.28R WCI  13
FARMINGTON     CLOUDY    21  14  73 N12G17    30.30R WCI   9
POPLAR BLUFF   PTSUNNY   30  15  53 N15       30.27R WCI  19
WEST PLAINS    PTSUNNY   25  12  58 NW16G22   30.28R WCI  12

$$


USA.gov is the U.S. government's official web portal to all federal, state and local government web resources and services.